Temperature
15 14 14 14 13 13 13 13 13 12 12 12 12 12 12 11 11 11 11 11 11 11 11 11 11 11 11 11 11 11 11 11 11 11 11 11 11 11 11 11 11 11 11
14 14 14 14 13 13 13 13 12 12 12 12 12 12 11 11 11 11 11 11 11 11 11 11 11 11 11 10 10 10 10 10 10 10 10 10 10 10 10 10 10 10 10
14 14 14 13 13 13 13 13 12 12 12 12 12 11 11 11 11 11 11 10 10 10 10 10 10 10 10 10 10 10 10 10 10 10 10 10 10 10 10 10 10 10 10
14 14 13 13 13 13 13 12 12 12 12 12 11 11 11 11 11 11 10 10 10 10 10 10 10 10 10 10 10 10 10 9 9 9 9 9 10 10 10 10 10 10 10
14 13 13 13 13 13 12 12 12 12 12 11 11 11 11 11 11 10 10 10 10 10 10 10 10 9 9 9 9 9 9 9 9 9 9 9 9 9 9 9 9 9 9
13 13 13 13 12 12 12 12 12 11 11 11 11 11 11 10 10 10 10 10 10 10 9 9 9 9 9 9 9 9 9 9 9 9 9 8 9 9 9 9 9 9 9
13 13 13 12 12 12 12 12 11 11 11 11 10 10 10 10 10 10 9 9 9 9 9 9 9 9 9 9 9 9 9 9 8 8 8 8 8 8 8 8 8 9 9
13 12 12 12 12 12 12 11 11 11 11 10 10 10 10 10 9 9 9 9 9 9 9 9 9 8 8 8 8 8 8 8 8 8 8 8 8 8 8 8 8 8 8
12 12 12 12 11 11 11 11 11 11 10 10 10 10 9 9 9 9 9 9 9 9 8 8 8 8 8 8 8 8 8 8 8 8 8 8 8 8 8 8 8 8 8
12 12 11 11 11 11 11 11 10 10 10 10 10 9 9 9 9 9 9 8 8 8 8 8 8 8 8 8 8 8 8 8 8 8 8 8 8 7 7 7 7 7 7
11 11 11 11 11 11 10 10 10 10 10 9 9 9 9 9 9 9 8 8 8 8 8 8 8 8 7 7 7 7 7 7 7 7 7 7 7 7 7 7 7 7 7
11 11 11 10 10 10 10 10 10 9 9 9 9 9 9 8 8 8 8 8 8 7 7 7 7 7 7 7 7 7 7 7 7 7 7 7 7 7 7 7 7 7 7
11 10 10 10 10 10 10 9 9 9 9 9 8 8 8 8 8 8 8 7 7 7 7 7 7 7 7 7 7 7 7 7 6 6 6 6 6 6 6 6 7 7 7
10 10 10 10 9 9 9 9 9 8 8 8 8 8 7 7 7 7 7 7 7 7 7 6 6 6 6 6 6 6 6 6 6 6 6 6 6 6 6 6 6 6 6
10 9 9 9 9 9 8 8 8 8 8 7 7 7 7 7 7 7 7 7 6 6 6 6 6 6 6 6 6 6 6 6 6 6 6 6 6 5 6 6 6 6 6
9 9 9 8 8 8 8 8 7 7 7 7 7 7 7 6 6 6 6 6 6 6 6 6 6 6 5 5 5 5 5 5 5 5 5 5 5 5 5 5 5 5 5
9 9 8 8 8 8 7 7 7 7 7 6 6 6 6 6 6 6 6 6 6 6 6 5 5 5 5 5 5 5 5 5 5 5 5 5 5 5 5 5 5 5 5
8 8 8 7 7 7 7 7 7 6 6 6 6 6 5 6 5 5 5 5 5 5 5 5 5 5 5 4 4 4 4 4 4 4 4 4 4 4 4 4 4 4 4
8 8 7 7 7 7 7 6 6 6 6 5 5 5 5 5 5 5 5 5 5 5 5 5 4 4 4 4 4 4 4 4 4 4 4 4 4 4 4 4 4 3 3
8 7 7 7 6 6 6 6 6 5 5 5 5 5 5 4 5 4 4 4 4 4 4 4 4 4 4 4 3 3 3 3 3 3 3 4 3 3 3 3 3 3 3
7 7 6 6 6 6 6 5 5 5 5 5 5 4 4 4 4 4 4 4 4 4 4 4 4 4 3 3 3 3 3 3 3 3 3 3 3 3 3 3 3 3 3
7 6 6 6 6 5 5 5 5 5 5 4 4 4 4 4 4 4 4 4 4 3 3 3 3 3 3 3 3 3 3 3 3 3 3 3 3 3 3 3 3 2 2
6 6 5 5 5 5 5 5 5 4 4 4 4 4 3 3 3 3 3 3 3 3 3 3 3 3 3 2 2 2 2 2 2 2 2 2 2 2 2 2 2 2 2
5 5 5 5 4 4 4 4 4 4 4 4 3 3 3 3 3 3 3 3 3 2 2 2 2 2 2 2 2 2 2 2 2 2 2 2 2 2 2 2 2 2 2
5 5 4 4 4 4 4 4 3 3 3 3 3 3 2 2 2 2 2 2 2 2 2 2 2 2 2 2 2 2 2 2 2 2 2 2 1 1 1 1 1 1 1
4 4 4 4 3 3 3 3 3 3 3 2 2 2 2 2 2 2 2 2 2 2 1 2 2 1 1 1 1 1 1 1 1 1 1 1 1 1 1 1 1 1 1
Wind_Speed
8 7 6 5 5 5 6 6 6 5 5 5 5 5 4 4 3 3 2 2 2 2 1 1 1 1 1 1 1 1 1 2 2 3 2 2 1 2 2 2 3 3 3
7 6 6 5 5 5 5 6 6 6 5 6 6 5 5 5 5 5 4 3 3 3 3 2 3 2 1 1 1 1 1 2 2 2 2 1 2 2 2 1 2 3 3
6 6 5 5 5 5 5 5 5 5 5 5 5 6 6 6 5 5 5 4 4 4 4 4 4 3 3 2 2 2 2 2 2 2 2 2 2 1 1 2 2 2 3
5 6 6 6 6 5 5 5 5 5 5 5 5 6 6 6 6 5 5 5 4 4 4 4 4 5 5 4 4 4 3 2 2 2 2 2 2 2 1 1 2 2 2
6 6 6 6 5 5 5 5 5 4 5 5 4 4 4 5 5 5 5 5 4 4 4 4 5 5 6 5 4 4 4 3 2 2 2 2 2 1 2 2 3 2 2
6 6 6 4 4 5 5 5 4 4 4 3 4 4 4 4 5 6 5 4 4 5 4 4 5 5 6 7 7 7 6 5 5 4 3 3 4 4 3 2 2 1 3
5 5 5 5 5 5 5 5 5 5 4 4 4 4 4 5 6 6 6 4 4 4 5 4 4 4 5 4 5 5 5 6 7 6 5 6 5 5 4 3 3 3 4
4 4 4 5 5 4 4 5 5 5 5 4 4 4 3 4 4 5 4 3 3 4 4 5 5 5 4 4 4 4 4 5 6 6 6 7 6 5 6 5 5 3 2
4 5 5 5 5 4 5 5 4 4 4 4 4 4 4 4 4 5 4 3 3 4 4 4 4 5 5 5 4 4 4 5 5 6 6 6 6 6 4 2 2 2 2
5 5 5 4 5 5 5 4 3 4 4 4 3 4 4 4 4 4 4 2 2 3 2 3 5 5 5 5 5 5 5 5 3 3 3 3 4 5 5 5 5 4 2
3 3 3 4 4 4 3 3 3 3 3 3 3 3 3 4 4 4 3 3 3 2 2 3 3 4 5 5 5 5 6 4 3 3 2 2 2 2 3 4 5 5 4
2 2 3 3 3 2 3 2 3 4 3 3 2 2 2 3 3 3 4 4 3 3 3 3 3 3 3 4 4 5 5 3 2 2 2 3 3 3 3 3 4 5 5
2 2 2 2 2 2 3 3 3 3 3 3 3 2 2 2 3 3 4 4 3 2 2 3 4 3 3 3 3 3 3 2 2 2 3 4 3 3 2 2 1 1 1
3 2 2 2 1 1 1 2 3 3 3 3 3 3 2 2 2 2 1 2 2 1 1 2 2 2 2 2 2 2 2 2 3 3 3 2 1 1 1 1 1 1 0
3 2 2 2 2 1 1 1 2 3 4 4 4 3 3 3 4 3 2 2 2 2 1 1 2 1 2 2 1 1 1 1 1 2 2 1 1 1 1 1 1 1 1
3 2 2 2 2 2 2 1 1 1 1 2 3 3 3 4 4 3 3 2 2 2 2 0 1 1 1 2 1 2 1 1 1 1 1 2 2 2 1 0 1 1 2
4 3 2 3 3 3 3 2 1 2 2 0 1 1 2 2 2 2 2 2 2 2 1 1 2 2 2 1 1 1 1 1 1 1 1 2 1 1 1 1 1 1 1
4 4 4 3 4 4 3 3 3 3 1 1 2 1 1 1 1 1 1 2 0 1 1 2 2 2 1 1 1 1 1 1 0 1 1 1 1 1 1 1 2 2 2
4 3 3 3 3 3 3 3 3 3 2 2 1 1 1 1 0 1 1 2 2 1 1 1 1 1 1 1 1 1 1 1 1 1 1 1 1 1 2 2 2 2 2
3 5 4 3 3 3 3 3 3 3 3 2 2 2 1 1 1 0 0 0 1 1 1 1 1 1 1 1 1 1 1 1 1 1 1 1 1 1 2 3 3 3 2
2 3 4 3 3 4 4 4 4 3 3 3 3 2 3 2 2 1 1 1 1 2 2 2 1 1 1 1 1 1 1 1 1 1 1 1 1 1 1 2 2 2 2
3 3 3 3 3 3 4 4 4 3 3 3 2 2 3 2 2 1 1 1 1 1 1 1 1 1 1 1 1 1 1 1 2 1 1 1 1 1 1 1 1 2 2
3 3 2 2 2 4 4 3 3 3 3 3 3 2 2 2 2 1 1 1 0 0 0 1 1 0 0 1 1 1 1 2 2 2 2 1 1 1 1 1 1 1 1
3 3 3 3 2 3 3 3 3 3 3 3 3 3 3 2 2 1 1 1 1 1 1 1 1 0 0 0 0 1 1 2 2 2 2 2 1 1 1 1 1 1 1
3 3 3 3 3 3 4 3 3 3 3 3 3 3 2 2 2 1 1 1 1 1 1 1 1 1 1 1 1 1 2 2 2 1 1 1 1 1 1 1 1 1 1
2 3 3 3 3 3 3 4 3 3 3 3 3 3 2 2 2 2 1 1 1 0 0 1 1 1 1 1 2 2 2 2 2 2 1 0 0 1 0 1 1 1 1
Wind_Direction
184 184 180 186 189 185 191 199 198 197 192 193 194 191 188 188 188 176 187 191 190 221 230 186 224 210 194 198 165 155 156 155 217 272 275 291 271 272 296 274 265 260 263
186 184 184 187 188 188 196 202 201 201 201 200 195 194 196 196 194 192 203 204 202 212 226 218 232 218 214 231 195 204 209 192 189 247 279 297 273 256 259 262 283 269 263
176 178 182 183 188 196 200 202 199 200 205 204 197 198 201 202 200 202 204 208 212 217 220 221 228 206 216 231 220 222 229 218 188 205 258 269 273 271 290 288 289 300 282
171 174 186 195 196 199 194 195 201 201 200 203 205 206 206 205 204 205 205 211 219 226 227 225 223 214 217 221 226 222 214 206 201 209 249 267 267 266 224 251 289 285 282
172 183 198 202 198 192 190 197 200 199 206 202 201 207 206 205 209 203 208 214 214 223 233 236 229 228 230 224 224 217 204 205 211 223 243 262 262 255 237 237 243 268 280
181 195 200 193 194 199 199 197 192 195 198 191 201 206 213 226 222 210 208 208 213 216 230 241 240 239 241 238 235 224 205 201 210 216 229 236 250 241 236 227 224 251 276
189 197 199 194 198 206 203 197 198 199 195 200 209 211 223 231 225 219 219 211 217 224 227 232 244 248 241 241 238 233 231 230 220 214 221 232 237 231 221 226 221 221 242
195 202 202 198 203 207 202 204 208 201 195 202 208 210 219 239 229 224 221 207 218 231 231 227 233 246 238 226 220 229 241 250 245 232 228 232 234 229 216 216 217 226 274
198 207 208 203 203 205 210 215 211 197 200 203 198 199 211 243 240 227 212 200 224 241 241 239 231 236 247 228 211 224 245 260 261 252 245 248 255 248 224 184 180 186 254
213 217 210 200 201 207 214 216 212 197 202 198 201 205 210 230 246 234 213 193 222 247 254 253 243 240 248 225 209 216 238 252 249 255 264 272 268 257 237 208 197 197 209
221 212 203 202 203 204 204 203 189 185 183 191 202 224 225 231 243 243 213 196 207 225 240 256 259 251 248 235 224 224 237 241 232 227 242 261 268 260 241 219 201 194 198
195 196 211 213 213 193 174 183 174 167 170 187 198 237 262 256 245 249 237 223 212 206 230 245 255 259 261 262 250 248 251 253 226 224 239 251 254 257 252 240 225 218 215
148 174 203 199 196 179 174 177 173 164 174 194 197 221 260 274 267 262 251 237 226 216 235 244 251 259 273 278 274 263 254 231 218 224 235 246 248 250 249 245 256 249 270
151 172 178 166 160 150 169 180 180 186 191 202 212 227 248 264 267 258 242 235 233 228 248 272 283 281 282 283 289 279 256 225 213 222 235 244 259 271 244 214 210 208 208
158 174 178 167 161 145 141 192 198 213 206 206 217 213 219 247 256 234 205 216 223 224 178 12 3 356 345 332 325 308 289 255 235 240 231 237 237 231 245 230 199 180 188
174 185 183 172 168 163 150 54 353 254 232 213 211 210 229 238 251 230 219 215 223 182 137 182 271 269 273 283 288 301 296 257 237 225 223 229 222 215 231 241 169 175 197
186 188 186 184 180 180 177 174 212 344 4 319 209 211 225 241 239 232 218 202 200 163 152 212 233 236 245 257 265 277 286 276 242 218 223 231 230 223 217 204 177 179 213
187 190 188 195 190 186 188 192 192 188 218 291 301 283 267 248 244 242 196 132 160 167 196 211 226 231 233 237 251 274 302 308 284 248 236 226 215 211 215 212 201 199 220
188 190 190 190 187 187 188 189 186 188 195 214 264 301 285 229 87 44 123 148 190 231 245 228 222 218 221 228 241 255 266 274 266 247 243 242 232 214 218 219 213 212 225
196 198 186 182 184 186 182 177 180 185 191 199 213 229 222 103 110 36 45 157 195 219 227 225 232 228 222 220 236 244 266 290 287 261 260 256 247 224 220 218 210 209 220
187 192 187 180 186 185 181 184 187 187 191 198 217 215 170 163 177 182 200 224 226 227 229 223 220 221 218 226 226 226 254 280 279 270 270 273 270 252 238 229 225 218 217
179 186 184 185 187 186 183 183 179 184 192 193 203 204 173 155 170 178 207 240 253 247 235 209 208 221 215 216 222 223 249 273 276 273 266 266 271 268 238 223 236 237 224
172 174 175 180 182 183 178 176 175 179 187 189 186 180 174 174 184 191 207 231 242 57 66 109 165 216 219 201 192 187 221 252 256 250 250 249 249 253 236 241 243 258 240
169 170 172 172 173 173 171 174 176 176 179 184 187 188 186 186 185 189 196 187 150 108 91 101 115 117 19 341 224 238 266 272 264 240 224 229 235 242 232 222 228 230 227
164 168 172 174 175 173 169 169 170 170 173 183 184 182 181 178 176 178 167 145 128 117 82 86 83 88 63 39 18 352 344 340 328 304 243 198 230 236 231 226 227 226 233
158 163 166 168 172 172 168 169 171 174 179 182 179 180 182 183 183 184 172 152 152 146 122 110 72 68 49 21 5 18 26 19 9 359 352 91 241 240 220 230 224 213 215
Height
1508 1509 1510 1511 1512 1513 1514 1514 1515 1516 1516 1516 1517 1517 1517 1517 1517 1517 1517 1517 1517 1517 1517 1518 1518 1518 1517 1517 1517 1517 1517 1518 1517 1517 1517 1517 1517 1516 1516 1516 1515 1514 1514
1505 1506 1507 1509 1510 1510 1511 1512 1512 1513 1513 1514 1514 1514 1514 1514 1515 1515 1514 1514 1514 1514 1515 1515 1515 1515 1515 1515 1515 1515 1515 1515 1515 1514 1514 1514 1514 1514 1514 1513 1513 1512 1512
1502 1503 1504 1505 1506 1507 1508 1509 1509 1510 1510 1511 1511 1511 1512 1512 1512 1512 1512 1511 1511 1511 1511 1512 1512 1512 1512 1512 1512 1512 1512 1512 1512 1512 1511 1512 1512 1512 1511 1511 1510 1510 1510
1499 1500 1501 1501 1502 1503 1504 1505 1506 1506 1507 1507 1508 1508 1509 1509 1509 1508 1508 1508 1508 1508 1508 1508 1508 1508 1508 1509 1509 1508 1508 1508 1508 1508 1508 1508 1508 1508 1508 1507 1507 1507 1507
1495 1496 1497 1498 1499 1500 1501 1501 1502 1503 1503 1504 1504 1505 1505 1505 1505 1505 1505 1504 1504 1504 1504 1504 1504 1505 1505 1505 1505 1505 1505 1505 1505 1504 1504 1504 1504 1504 1504 1504 1504 1504 1504
1492 1493 1494 1495 1495 1496 1497 1498 1498 1499 1499 1500 1500 1501 1501 1501 1501 1501 1501 1500 1500 1500 1500 1500 1500 1501 1501 1501 1501 1501 1502 1501 1501 1501 1500 1500 1500 1501 1501 1501 1501 1500 1500
1489 1489 1490 1491 1492 1492 1493 1494 1494 1495 1495 1496 1497 1497 1497 1497 1497 1497 1497 1497 1496 1496 1496 1496 1496 1496 1497 1497 1497 1497 1497 1497 1498 1497 1496 1496 1497 1497 1497 1498 1498 1497 1497
1486 1486 1487 1487 1488 1489 1490 1490 1490 1491 1491 1492 1492 1493 1493 1493 1493 1493 1493 1492 1492 1492 1492 1492 1492 1492 1492 1492 1493 1493 1493 1492 1493 1492 1492 1492 1493 1494 1494 1494 1494 1494 1495
1482 1483 1483 1484 1484 1485 1485 1486 1486 1487 1487 1488 1488 1488 1489 1489 1489 1489 1489 1488 1487 1487 1487 1487 1488 1488 1488 1488 1488 1488 1488 1488 1488 1488 1488 1488 1489 1489 1490 1490 1490 1491 1490
1479 1479 1480 1480 1481 1481 1482 1482 1482 1483 1483 1484 1484 1484 1484 1484 1485 1484 1484 1484 1483 1482 1482 1483 1483 1483 1483 1484 1484 1483 1483 1483 1483 1483 1483 1484 1484 1485 1485 1486 1486 1486 1486
1476 1476 1477 1477 1477 1477 1478 1478 1479 1479 1480 1480 1480 1481 1481 1481 1480 1480 1480 1480 1479 1478 1478 1478 1478 1479 1479 1479 1479 1479 1479 1479 1479 1479 1479 1479 1479 1480 1481 1481 1482 1483 1483
1473 1473 1473 1473 1473 1474 1474 1475 1475 1476 1476 1476 1476 1477 1477 1477 1476 1476 1476 1476 1475 1475 1474 1474 1474 1474 1474 1475 1475 1475 1475 1475 1475 1475 1474 1474 1475 1475 1476 1477 1478 1478 1479
1470 1470 1470 1470 1470 1470 1471 1471 1471 1472 1472 1472 1473 1473 1473 1473 1473 1472 1472 1472 1471 1471 1471 1470 1470 1470 1470 1470 1470 1470 1470 1470 1470 1470 1470 1470 1471 1471 1472 1472 1473 1474 1475
1466 1466 1466 1467 1467 1467 1467 1468 1468 1468 1468 1469 1469 1469 1469 1469 1468 1468 1468 1468 1468 1467 1467 1467 1467 1466 1466 1466 1466 1465 1465 1466 1466 1466 1466 1467 1467 1467 1468 1468 1469 1470 1470
1463 1463 1463 1463 1463 1464 1464 1465 1465 1465 1465 1465 1465 1465 1465 1465 1465 1465 1465 1464 1464 1464 1464 1463 1463 1462 1462 1461 1461 1461 1461 1461 1461 1462 1463 1463 1463 1463 1464 1465 1465 1466 1466
1460 1460 1460 1460 1460 1461 1461 1462 1462 1463 1463 1463 1463 1463 1462 1463 1462 1462 1462 1461 1461 1461 1461 1459 1459 1459 1458 1458 1458 1457 1457 1457 1457 1458 1459 1459 1459 1460 1460 1461 1462 1462 1462
1457 1457 1457 1457 1458 1458 1458 1458 1459 1460 1460 1460 1460 1460 1459 1459 1459 1459 1458 1458 1458 1458 1457 1456 1456 1456 1456 1455 1455 1454 1454 1454 1454 1455 1455 1456 1456 1457 1457 1457 1458 1459 1459
1454 1454 1454 1454 1455 1455 1455 1456 1456 1456 1456 1456 1457 1457 1456 1456 1456 1456 1456 1455 1454 1454 1454 1454 1454 1454 1453 1453 1452 1452 1452 1452 1452 1452 1452 1453 1453 1453 1453 1454 1455 1455 1455
1451 1451 1451 1451 1452 1452 1453 1453 1453 1453 1453 1453 1454 1454 1454 1453 1453 1453 1453 1452 1451 1451 1451 1451 1451 1451 1451 1450 1450 1450 1450 1449 1449 1449 1450 1450 1450 1450 1450 1451 1451 1452 1452
1447 1447 1447 1448 1448 1449 1449 1450 1450 1450 1451 1451 1451 1451 1451 1451 1450 1450 1450 1450 1450 1450 1449 1449 1448 1448 1448 1448 1447 1447 1447 1447 1447 1447 1447 1447 1447 1447 1447 1447 1448 1448 1449
1443 1444 1444 1445 1445 1445 1446 1447 1447 1448 1448 1448 1448 1449 1449 1448 1448 1448 1448 1447 1447 1447 1447 1446 1446 1446 1446 1445 1445 1445 1445 1445 1445 1444 1444 1444 1444 1444 1444 1445 1445 1446 1446
1440 1440 1440 1441 1441 1442 1443 1444 1445 1445 1445 1446 1446 1446 1446 1446 1446 1446 1446 1445 1445 1445 1445 1445 1444 1444 1444 1444 1443 1443 1442 1442 1442 1442 1442 1442 1442 1442 1442 1442 1442 1442 1442
1436 1436 1437 1438 1438 1439 1440 1441 1441 1442 1442 1443 1443 1443 1444 1444 1444 1443 1443 1443 1443 1443 1443 1443 1442 1442 1442 1442 1441 1441 1440 1440 1440 1440 1440 1439 1439 1439 1439 1439 1439 1439 1439
1433 1433 1434 1434 1435 1436 1437 1438 1438 1439 1439 1440 1440 1441 1441 1441 1441 1441 1441 1441 1441 1441 1441 1440 1440 1440 1440 1439 1439 1439 1439 1439 1438 1438 1438 1437 1437 1437 1437 1437 1437 1437 1437
1430 1430 1431 1431 1432 1433 1434 1435 1436 1436 1437 1437 1438 1438 1438 1438 1438 1438 1438 1439 1438 1438 1438 1438 1438 1438 1437 1437 1437 1436 1436 1436 1436 1436 1435 1435 1435 1434 1434 1434 1435 1435 1435
1428 1428 1428 1429 1430 1430 1431 1432 1433 1434 1434 1435 1435 1435 1436 1436 1436 1436 1436 1436 1436 1436 1436 1436 1436 1435 1435 1434 1434 1434 1434 1433 1433 1433 1433 1433 1432 1432 1432 1432 1432 1432 1433